Year,Month,Day,Hour,Minute,Value (Times are PST for temperature in C)
2010,10,15,00,00,8.40
2010,10,15,00,01,8.40
2010,10,15,00,02,8.40
2010,10,15,00,03,8.30
2010,10,15,00,04,8.30
2010,10,15,00,05,8.30
2010,10,15,00,06,8.30
2010,10,15,00,07,8.30
2010,10,15,00,08,8.30
2010,10,15,00,09,8.40
2010,10,15,00,10,8.40
2010,10,15,00,11,8.40
2010,10,15,00,12,8.40
2010,10,15,00,13,8.40
2010,10,15,00,14,8.40
2010,10,15,00,15,8.40
2010,10,15,00,16,8.40
2010,10,15,00,17,8.40
2010,10,15,00,18,8.40
2010,10,15,00,19,8.40
2010,10,15,00,20,8.40
2010,10,15,00,21,8.30
2010,10,15,00,22,8.30
2010,10,15,00,23,8.30
2010,10,15,00,24,8.30
2010,10,15,00,25,8.20
2010,10,15,00,26,8.20
2010,10,15,00,27,8.20
2010,10,15,00,28,8.20
2010,10,15,00,29,8.10
2010,10,15,00,30,8.10
2010,10,15,00,31,8.10
2010,10,15,00,32,8.00
2010,10,15,00,33,8.00
2010,10,15,00,34,7.90
2010,10,15,00,35,7.90
2010,10,15,00,36,7.90
2010,10,15,00,37,7.80
2010,10,15,00,38,7.80
2010,10,15,00,39,7.80
2010,10,15,00,40,7.80
2010,10,15,00,41,7.80
2010,10,15,00,42,7.80
2010,10,15,00,43,7.80
2010,10,15,00,44,7.80
2010,10,15,00,45,7.80
2010,10,15,00,46,7.80
2010,10,15,00,47,7.70
2010,10,15,00,48,7.70
2010,10,15,00,49,7.70
2010,10,15,00,50,7.60
2010,10,15,00,51,7.60
2010,10,15,00,52,7.60
2010,10,15,00,53,7.50
2010,10,15,00,54,7.40
2010,10,15,00,55,7.40
2010,10,15,00,56,7.30
2010,10,15,00,57,7.30
2010,10,15,00,58,7.30
2010,10,15,00,59,7.30
2010,10,15,01,00,7.30
2010,10,15,01,01,7.30
2010,10,15,01,02,7.20
2010,10,15,01,03,7.20
2010,10,15,01,04,7.20
2010,10,15,01,05,7.10
2010,10,15,01,06,7.10
2010,10,15,01,07,7.10
2010,10,15,01,08,7.00
2010,10,15,01,09,7.00
2010,10,15,01,10,7.00
2010,10,15,01,11,7.00
2010,10,15,01,12,6.90
2010,10,15,01,13,6.90
2010,10,15,01,14,6.90
2010,10,15,01,15,6.80
2010,10,15,01,16,6.80
2010,10,15,01,17,6.80
2010,10,15,01,18,6.80
2010,10,15,01,19,6.80
2010,10,15,01,20,6.80
2010,10,15,01,21,6.80
2010,10,15,01,22,6.80
2010,10,15,01,23,6.80
2010,10,15,01,24,6.70
2010,10,15,01,25,6.70
2010,10,15,01,26,6.70
2010,10,15,01,27,6.60
2010,10,15,01,28,6.60
2010,10,15,01,29,6.60
2010,10,15,01,30,6.60
2010,10,15,01,31,6.60
2010,10,15,01,32,6.60
2010,10,15,01,33,6.60
2010,10,15,01,34,6.50
2010,10,15,01,35,6.40
2010,10,15,01,36,6.40
2010,10,15,01,37,6.40
2010,10,15,01,38,6.40
2010,10,15,01,39,6.40
2010,10,15,01,40,6.40
2010,10,15,01,41,6.30
2010,10,15,01,42,6.30
2010,10,15,01,43,6.30
2010,10,15,01,44,6.20
2010,10,15,01,45,6.20
2010,10,15,01,46,6.20
2010,10,15,01,47,6.20
2010,10,15,01,48,6.10
2010,10,15,01,49,6.10
2010,10,15,01,50,6.10
2010,10,15,01,51,6.10
2010,10,15,01,52,6.10
2010,10,15,01,53,6.10
2010,10,15,01,54,6.00
2010,10,15,01,55,6.00
2010,10,15,01,56,6.00
2010,10,15,01,57,6.00
2010,10,15,01,58,6.00
2010,10,15,01,59,6.00
2010,10,15,02,00,5.90
2010,10,15,02,01,5.90
2010,10,15,02,02,5.80
2010,10,15,02,03,5.80
2010,10,15,02,04,5.80
2010,10,15,02,05,5.90
2010,10,15,02,06,6.00
2010,10,15,02,07,6.00
2010,10,15,02,08,5.90
2010,10,15,02,09,5.90
2010,10,15,02,10,5.80
2010,10,15,02,11,5.80
2010,10,15,02,12,5.80
2010,10,15,02,13,5.80
2010,10,15,02,14,5.80
2010,10,15,02,15,5.80
2010,10,15,02,16,5.80
2010,10,15,02,17,5.80
2010,10,15,02,18,5.70
2010,10,15,02,19,5.70
2010,10,15,02,20,5.70
2010,10,15,02,21,5.70
2010,10,15,02,22,5.70
2010,10,15,02,23,5.70
2010,10,15,02,24,5.60
2010,10,15,02,25,5.60
2010,10,15,02,26,5.50
2010,10,15,02,27,5.40
2010,10,15,02,28,5.40
2010,10,15,02,29,5.30
2010,10,15,02,30,5.30
2010,10,15,02,31,5.30
2010,10,15,02,32,5.40
2010,10,15,02,33,5.40
2010,10,15,02,34,5.40
2010,10,15,02,35,5.40
2010,10,15,02,36,5.40
2010,10,15,02,37,5.30
2010,10,15,02,38,5.30
2010,10,15,02,39,5.30
2010,10,15,02,40,5.30
2010,10,15,02,41,5.30
2010,10,15,02,42,5.30
2010,10,15,02,43,5.30
2010,10,15,02,44,5.30
2010,10,15,02,45,5.30
2010,10,15,02,46,5.30
2010,10,15,02,47,5.30
2010,10,15,02,48,5.30
2010,10,15,02,49,5.30
2010,10,15,02,50,5.30
2010,10,15,02,51,5.30
2010,10,15,02,52,5.30
2010,10,15,02,53,5.30
2010,10,15,02,54,5.30
2010,10,15,02,55,5.30
2010,10,15,02,56,5.30
2010,10,15,02,57,5.30
2010,10,15,02,58,5.40
2010,10,15,02,59,5.40
2010,10,15,03,00,5.50
2010,10,15,03,01,5.50
2010,10,15,03,02,5.60
2010,10,15,03,03,5.60
2010,10,15,03,04,5.60
2010,10,15,03,05,5.60
2010,10,15,03,06,5.70
2010,10,15,03,07,5.70
2010,10,15,03,08,5.90
2010,10,15,03,09,6.00
2010,10,15,03,10,6.10
2010,10,15,03,11,6.20
2010,10,15,03,12,6.20
2010,10,15,03,13,6.20
2010,10,15,03,14,6.30
2010,10,15,03,15,6.30
2010,10,15,03,16,6.40
2010,10,15,03,17,6.40
2010,10,15,03,18,6.30
2010,10,15,03,19,6.30
2010,10,15,03,20,6.20
2010,10,15,03,21,6.20
2010,10,15,03,22,6.10
2010,10,15,03,23,6.10
2010,10,15,03,24,6.10
2010,10,15,03,25,6.10
2010,10,15,03,26,6.10
2010,10,15,03,27,6.10
2010,10,15,03,28,6.00
2010,10,15,03,29,6.00
2010,10,15,03,30,6.00
2010,10,15,03,31,5.90
2010,10,15,03,32,5.90
2010,10,15,03,33,5.90
2010,10,15,03,34,5.80
2010,10,15,03,35,5.80
2010,10,15,03,36,5.80
2010,10,15,03,37,5.80
2010,10,15,03,38,5.70
2010,10,15,03,39,5.70
2010,10,15,03,40,5.70
2010,10,15,03,41,5.70
2010,10,15,03,42,5.70
2010,10,15,03,43,5.70
2010,10,15,03,44,5.70
2010,10,15,03,45,5.70
2010,10,15,03,46,5.70
2010,10,15,03,47,5.70
2010,10,15,03,48,5.70
2010,10,15,03,49,5.60
2010,10,15,03,50,5.60
2010,10,15,03,51,5.60
2010,10,15,03,52,5.50
2010,10,15,03,53,5.50
2010,10,15,03,54,5.50
2010,10,15,03,55,5.50
2010,10,15,03,56,5.50
2010,10,15,03,57,5.50
2010,10,15,03,58,5.50
2010,10,15,03,59,5.40
2010,10,15,04,00,5.40
2010,10,15,04,01,5.40
2010,10,15,04,02,5.40
2010,10,15,04,03,5.40
2010,10,15,04,04,5.40
2010,10,15,04,05,5.40
2010,10,15,04,06,5.40
2010,10,15,04,07,5.40
2010,10,15,04,08,5.40
2010,10,15,04,09,5.30
2010,10,15,04,10,5.30
2010,10,15,04,11,5.30
2010,10,15,04,12,5.30
2010,10,15,04,13,5.20
2010,10,15,04,14,5.20
2010,10,15,04,15,5.20
2010,10,15,04,16,5.10
2010,10,15,04,17,5.10
2010,10,15,04,18,5.10
2010,10,15,04,19,5.10
2010,10,15,04,20,5.10
2010,10,15,04,21,5.10
2010,10,15,04,22,5.10
2010,10,15,04,23,5.10
2010,10,15,04,24,5.00
2010,10,15,04,25,4.90
2010,10,15,04,26,4.90
2010,10,15,04,27,4.90
2010,10,15,04,28,4.80
2010,10,15,04,29,4.80
2010,10,15,04,30,4.70
2010,10,15,04,31,4.70
2010,10,15,04,32,4.70
2010,10,15,04,33,4.70
2010,10,15,04,34,4.70
2010,10,15,04,35,4.70
2010,10,15,04,36,4.80
2010,10,15,04,37,4.80
2010,10,15,04,38,4.80
2010,10,15,04,39,4.80
2010,10,15,04,40,4.70
2010,10,15,04,41,4.70
2010,10,15,04,42,4.70
2010,10,15,04,43,4.60
2010,10,15,04,44,4.60
2010,10,15,04,45,4.60
2010,10,15,04,46,4.60
2010,10,15,04,47,4.60
2010,10,15,04,48,4.60
2010,10,15,04,49,4.60
2010,10,15,04,50,4.60
2010,10,15,04,51,4.60
2010,10,15,04,52,4.60
2010,10,15,04,53,4.60
2010,10,15,04,54,4.70
2010,10,15,04,55,4.80
2010,10,15,04,56,4.80
2010,10,15,04,57,4.80
2010,10,15,04,58,4.80
2010,10,15,04,59,4.80
2010,10,15,05,00,4.80
2010,10,15,05,01,4.80
2010,10,15,05,02,4.70
2010,10,15,05,03,4.70
2010,10,15,05,04,4.60
2010,10,15,05,05,4.60
2010,10,15,05,06,4.60
2010,10,15,05,07,4.60
2010,10,15,05,08,4.60
2010,10,15,05,09,4.60
2010,10,15,05,10,4.60
2010,10,15,05,11,4.60
2010,10,15,05,12,4.60
2010,10,15,05,13,4.60
2010,10,15,05,14,4.60
2010,10,15,05,15,4.60
2010,10,15,05,16,4.60
2010,10,15,05,17,4.60
2010,10,15,05,18,4.60
2010,10,15,05,19,4.60
2010,10,15,05,20,4.60
2010,10,15,05,21,4.60
2010,10,15,05,22,4.60
2010,10,15,05,23,4.60
2010,10,15,05,24,4.70
2010,10,15,05,25,4.70
2010,10,15,05,26,4.60
2010,10,15,05,27,4.60
2010,10,15,05,28,4.60
2010,10,15,05,29,4.60
2010,10,15,05,30,4.60
2010,10,15,05,31,4.60
2010,10,15,05,32,4.60
2010,10,15,05,33,4.50
2010,10,15,05,34,4.50
2010,10,15,05,35,4.50
2010,10,15,05,36,4.50
2010,10,15,05,37,4.50
2010,10,15,05,38,4.50
2010,10,15,05,39,4.40
2010,10,15,05,40,4.40
2010,10,15,05,41,4.40
2010,10,15,05,42,4.40
2010,10,15,05,43,4.30
2010,10,15,05,44,4.30
2010,10,15,05,45,4.30
2010,10,15,05,46,4.20
2010,10,15,05,47,4.20
2010,10,15,05,48,4.20
2010,10,15,05,49,4.20
2010,10,15,05,50,4.20
2010,10,15,05,51,4.10
2010,10,15,05,52,4.10
2010,10,15,05,53,4.10
2010,10,15,05,54,4.10
2010,10,15,05,55,4.10
2010,10,15,05,56,4.10
2010,10,15,05,57,4.20
2010,10,15,05,58,4.20
2010,10,15,05,59,4.20
2010,10,15,06,00,4.20
2010,10,15,06,01,4.20
2010,10,15,06,02,4.20
2010,10,15,06,03,4.20
2010,10,15,06,04,4.20
2010,10,15,06,05,4.20
2010,10,15,06,06,4.20
2010,10,15,06,07,4.30
2010,10,15,06,08,4.30
2010,10,15,06,09,4.40
2010,10,15,06,10,4.40
2010,10,15,06,11,4.40
2010,10,15,06,12,4.30
2010,10,15,06,13,4.30
2010,10,15,06,14,4.30
2010,10,15,06,15,4.30
2010,10,15,06,16,4.20
2010,10,15,06,17,4.20
2010,10,15,06,18,4.20
2010,10,15,06,19,4.20
2010,10,15,06,20,4.20
2010,10,15,06,21,4.10
2010,10,15,06,22,4.10
2010,10,15,06,23,4.00
2010,10,15,06,24,4.00
2010,10,15,06,25,3.90
2010,10,15,06,26,3.90
2010,10,15,06,27,3.80
2010,10,15,06,28,3.80
2010,10,15,06,29,3.80
2010,10,15,06,30,3.80
2010,10,15,06,31,3.80
2010,10,15,06,32,3.80
2010,10,15,06,33,3.80
2010,10,15,06,34,3.80
2010,10,15,06,35,3.80
2010,10,15,06,36,3.80
2010,10,15,06,37,3.80
2010,10,15,06,38,3.80
2010,10,15,06,39,3.80
2010,10,15,06,40,3.80
2010,10,15,06,41,3.70
2010,10,15,06,42,3.70
2010,10,15,06,43,3.70
2010,10,15,06,44,3.70
2010,10,15,06,45,3.70
2010,10,15,06,46,3.70
2010,10,15,06,47,3.70
2010,10,15,06,48,3.70
2010,10,15,06,49,3.70
2010,10,15,06,50,3.70
2010,10,15,06,51,3.80
2010,10,15,06,52,3.80
2010,10,15,06,53,3.70
2010,10,15,06,54,3.70
2010,10,15,06,55,3.60
2010,10,15,06,56,3.60
2010,10,15,06,57,3.60
2010,10,15,06,58,3.60
2010,10,15,06,59,3.60
2010,10,15,07,00,3.60
2010,10,15,07,01,3.60
2010,10,15,07,02,3.60
2010,10,15,07,03,3.50
2010,10,15,07,04,3.50
2010,10,15,07,05,3.40
2010,10,15,07,06,3.30
2010,10,15,07,07,3.30
2010,10,15,07,08,3.30
2010,10,15,07,09,3.30
2010,10,15,07,10,3.30
2010,10,15,07,11,3.30
2010,10,15,07,12,3.30
2010,10,15,07,13,3.30
2010,10,15,07,14,3.30
2010,10,15,07,15,3.30
2010,10,15,07,16,3.30
2010,10,15,07,17,3.20
2010,10,15,07,18,3.20
2010,10,15,07,19,3.20
2010,10,15,07,20,3.20
2010,10,15,07,21,3.30
2010,10,15,07,22,3.30
2010,10,15,07,23,3.30
2010,10,15,07,24,3.30
2010,10,15,07,25,3.40
2010,10,15,07,26,3.40
2010,10,15,07,27,3.40
2010,10,15,07,28,3.50
2010,10,15,07,29,3.50
2010,10,15,07,30,3.60
2010,10,15,07,31,3.60
2010,10,15,07,32,3.60
2010,10,15,07,33,3.60
2010,10,15,07,34,3.60
2010,10,15,07,35,3.60
2010,10,15,07,36,3.60
2010,10,15,07,37,3.60
2010,10,15,07,38,3.60
2010,10,15,07,39,3.60
2010,10,15,07,40,3.60
2010,10,15,07,41,3.60
2010,10,15,07,42,3.60
2010,10,15,07,43,3.60
2010,10,15,07,44,3.50
2010,10,15,07,45,3.50
2010,10,15,07,46,3.50
2010,10,15,07,47,3.50
2010,10,15,07,48,3.50
2010,10,15,07,49,3.50
2010,10,15,07,50,3.50
2010,10,15,07,51,3.50
2010,10,15,07,52,3.50
2010,10,15,07,53,3.50
2010,10,15,07,54,3.50
2010,10,15,07,55,3.50
2010,10,15,07,56,3.50
2010,10,15,07,57,3.50
2010,10,15,07,58,3.40
2010,10,15,07,59,3.40
2010,10,15,08,00,3.40
2010,10,15,08,01,3.40
2010,10,15,08,02,3.40
2010,10,15,08,03,3.40
2010,10,15,08,04,3.40
2010,10,15,08,05,3.40
2010,10,15,08,06,3.50
2010,10,15,08,07,3.50
2010,10,15,08,08,3.50
2010,10,15,08,09,3.60
2010,10,15,08,10,3.60
2010,10,15,08,11,3.70
2010,10,15,08,12,3.70
2010,10,15,08,13,3.70
2010,10,15,08,14,3.80
2010,10,15,08,15,3.80
2010,10,15,08,16,3.80
2010,10,15,08,17,3.80
2010,10,15,08,18,3.80
2010,10,15,08,19,3.90
2010,10,15,08,20,3.90
2010,10,15,08,21,3.90
2010,10,15,08,22,4.00
2010,10,15,08,23,4.00
2010,10,15,08,24,4.00
2010,10,15,08,25,4.00
2010,10,15,08,26,4.00
2010,10,15,08,27,4.00
2010,10,15,08,28,4.00
2010,10,15,08,29,4.00
2010,10,15,08,30,4.00
2010,10,15,08,31,4.00
2010,10,15,08,32,4.00
2010,10,15,08,33,4.10
2010,10,15,08,34,4.10
2010,10,15,08,35,4.10
2010,10,15,08,36,4.20
2010,10,15,08,37,4.20
2010,10,15,08,38,4.20
2010,10,15,08,39,4.20
2010,10,15,08,40,4.20
2010,10,15,08,41,4.20
2010,10,15,08,42,4.30
2010,10,15,08,43,4.30
2010,10,15,08,44,4.40
2010,10,15,08,45,4.50
2010,10,15,08,46,4.50
2010,10,15,08,47,4.60
2010,10,15,08,48,4.60
2010,10,15,08,49,4.60
2010,10,15,08,50,4.60
2010,10,15,08,51,4.60
2010,10,15,08,52,4.70
2010,10,15,08,53,4.70
2010,10,15,08,54,4.80
2010,10,15,08,55,4.90
2010,10,15,08,56,4.90
2010,10,15,08,57,4.90
2010,10,15,08,58,5.00
2010,10,15,08,59,5.10
2010,10,15,09,00,5.10
2010,10,15,09,01,5.10
2010,10,15,09,02,5.20
2010,10,15,09,03,5.20
2010,10,15,09,04,5.20
2010,10,15,09,05,5.30
2010,10,15,09,06,5.30
2010,10,15,09,07,5.30
2010,10,15,09,08,5.30
2010,10,15,09,09,5.30
2010,10,15,09,10,5.30
2010,10,15,09,11,5.30
2010,10,15,09,12,5.30
2010,10,15,09,13,5.40
2010,10,15,09,14,5.40
2010,10,15,09,15,5.50
2010,10,15,09,16,5.50
2010,10,15,09,17,5.60
2010,10,15,09,18,5.70
2010,10,15,09,19,5.70
2010,10,15,09,20,5.80
2010,10,15,09,21,5.90
2010,10,15,09,22,6.00
2010,10,15,09,23,6.10
2010,10,15,09,24,6.20
2010,10,15,09,25,6.20
2010,10,15,09,26,6.20
2010,10,15,09,27,6.20
2010,10,15,09,28,6.20
2010,10,15,09,29,6.20
2010,10,15,09,30,6.20
2010,10,15,09,31,6.30
2010,10,15,09,32,6.40
2010,10,15,09,33,6.40
2010,10,15,09,34,6.60
2010,10,15,09,35,6.70
2010,10,15,09,36,6.80
2010,10,15,09,37,6.90
2010,10,15,09,38,7.10
2010,10,15,09,39,7.20
2010,10,15,09,40,7.30
2010,10,15,09,41,7.30
2010,10,15,09,42,7.30
2010,10,15,09,43,7.30
2010,10,15,09,44,7.40
2010,10,15,09,45,7.40
2010,10,15,09,46,7.40
2010,10,15,09,47,7.30
2010,10,15,09,48,7.30
2010,10,15,09,49,7.30
2010,10,15,09,50,7.30
2010,10,15,09,51,7.30
2010,10,15,09,52,7.30
2010,10,15,09,53,7.30
2010,10,15,09,54,7.30
2010,10,15,09,55,7.40
2010,10,15,09,56,7.50
2010,10,15,09,57,7.60
2010,10,15,09,58,7.70
2010,10,15,09,59,7.70
2010,10,15,10,00,7.80
2010,10,15,10,01,7.80
2010,10,15,10,02,7.90
2010,10,15,10,03,8.00
2010,10,15,10,04,8.20
2010,10,15,10,05,8.30
2010,10,15,10,06,8.30
2010,10,15,10,07,8.30
2010,10,15,10,08,8.40
2010,10,15,10,09,8.40
2010,10,15,10,10,8.40
2010,10,15,10,11,8.30
2010,10,15,10,12,8.30
2010,10,15,10,13,8.30
2010,10,15,10,14,8.30
2010,10,15,10,15,8.30
2010,10,15,10,16,8.40
2010,10,15,10,17,8.40
2010,10,15,10,18,8.50
2010,10,15,10,19,8.70
2010,10,15,10,20,8.80
2010,10,15,10,21,8.90
2010,10,15,10,22,9.00
2010,10,15,10,23,9.10
2010,10,15,10,24,9.20
2010,10,15,10,25,9.30
2010,10,15,10,26,9.40
2010,10,15,10,27,9.50
2010,10,15,10,28,9.70
2010,10,15,10,29,9.70
2010,10,15,10,30,9.80
2010,10,15,10,31,10.00
2010,10,15,10,32,10.10
2010,10,15,10,33,10.10
2010,10,15,10,34,10.20
2010,10,15,10,35,10.30
2010,10,15,10,36,10.50
2010,10,15,10,37,10.60
2010,10,15,10,38,10.60
2010,10,15,10,39,10.80
2010,10,15,10,40,10.80
2010,10,15,10,41,10.80
2010,10,15,10,42,10.80
2010,10,15,10,43,10.90
2010,10,15,10,44,10.90
2010,10,15,10,45,10.90
2010,10,15,10,46,10.90
2010,10,15,10,47,10.90
2010,10,15,10,48,10.90
2010,10,15,10,49,10.80
2010,10,15,10,50,10.60
2010,10,15,10,51,10.60
2010,10,15,10,52,10.50
2010,10,15,10,53,10.60
2010,10,15,10,54,10.70
2010,10,15,10,55,10.70
2010,10,15,10,56,10.80
2010,10,15,10,57,10.90
2010,10,15,10,58,10.90
2010,10,15,10,59,10.90
2010,10,15,11,00,10.90
2010,10,15,11,01,10.90
2010,10,15,11,02,10.90
2010,10,15,11,03,10.90
2010,10,15,11,04,10.80
2010,10,15,11,05,10.80
2010,10,15,11,06,10.80
2010,10,15,11,07,10.80
2010,10,15,11,08,10.90
2010,10,15,11,09,11.10
2010,10,15,11,10,11.10
2010,10,15,11,11,11.10
2010,10,15,11,12,11.10
2010,10,15,11,13,11.20
2010,10,15,11,14,11.30
2010,10,15,11,15,11.30
2010,10,15,11,16,11.30
2010,10,15,11,17,11.20
2010,10,15,11,18,11.30
2010,10,15,11,19,11.30
2010,10,15,11,20,11.30
2010,10,15,11,21,11.40
2010,10,15,11,22,11.40
2010,10,15,11,23,11.60
2010,10,15,11,24,11.60
2010,10,15,11,25,11.60
2010,10,15,11,26,11.60
2010,10,15,11,27,11.70
2010,10,15,11,28,11.70
2010,10,15,11,29,11.70
2010,10,15,11,30,11.70
2010,10,15,11,31,11.70
2010,10,15,11,32,11.80
2010,10,15,11,33,11.80
2010,10,15,11,34,11.80
2010,10,15,11,35,11.90
2010,10,15,11,36,11.80
2010,10,15,11,37,11.70
2010,10,15,11,38,11.60
2010,10,15,11,39,11.40
2010,10,15,11,40,11.40
2010,10,15,11,41,11.40
2010,10,15,11,42,11.60
2010,10,15,11,43,11.70
2010,10,15,11,44,11.80
2010,10,15,11,45,11.80
2010,10,15,11,46,11.80
2010,10,15,11,47,11.70
2010,10,15,11,48,11.60
2010,10,15,11,49,11.50
2010,10,15,11,50,11.60
2010,10,15,11,51,11.70
2010,10,15,11,52,11.80
2010,10,15,11,53,11.80
2010,10,15,11,54,11.80
2010,10,15,11,55,11.80
2010,10,15,11,56,11.80
2010,10,15,11,57,11.80
2010,10,15,11,58,11.60
2010,10,15,11,59,11.40
2010,10,15,12,00,11.20
2010,10,15,12,01,11.20
2010,10,15,12,02,11.20
2010,10,15,12,03,11.20
2010,10,15,12,04,11.20
2010,10,15,12,05,11.10
2010,10,15,12,06,11.10
2010,10,15,12,07,11.20
2010,10,15,12,08,11.10
2010,10,15,12,09,11.20
2010,10,15,12,10,11.20
2010,10,15,12,11,11.20
2010,10,15,12,12,11.30
2010,10,15,12,13,11.40
2010,10,15,12,14,11.50
2010,10,15,12,15,11.60
2010,10,15,12,16,11.60
2010,10,15,12,17,11.70
2010,10,15,12,18,11.70
2010,10,15,12,19,11.70
2010,10,15,12,20,11.80
2010,10,15,12,21,11.90
2010,10,15,12,22,11.90
2010,10,15,12,23,11.80
2010,10,15,12,24,11.80
2010,10,15,12,25,11.90
2010,10,15,12,26,11.80
2010,10,15,12,27,11.80
2010,10,15,12,28,11.70
2010,10,15,12,29,11.60
2010,10,15,12,30,11.70
2010,10,15,12,31,11.60
2010,10,15,12,32,11.60
2010,10,15,12,33,11.60
2010,10,15,12,34,11.60
2010,10,15,12,35,11.80
2010,10,15,12,36,11.90
2010,10,15,12,37,12.00
2010,10,15,12,38,12.20
2010,10,15,12,39,12.30
2010,10,15,12,40,12.40
2010,10,15,12,41,12.50
2010,10,15,12,42,12.60
2010,10,15,12,43,12.80
2010,10,15,12,44,12.90
2010,10,15,12,45,13.00
2010,10,15,12,46,13.10
2010,10,15,12,47,13.20
2010,10,15,12,48,13.20
2010,10,15,12,49,13.30
2010,10,15,12,50,13.30
2010,10,15,12,51,13.30
2010,10,15,12,52,13.10
2010,10,15,12,53,12.90
2010,10,15,12,54,12.80
2010,10,15,12,55,12.70
2010,10,15,12,56,12.70
2010,10,15,12,57,12.70
2010,10,15,12,58,12.80
2010,10,15,12,59,12.80
2010,10,15,13,00,12.80
2010,10,15,13,01,12.90
2010,10,15,13,02,13.00
2010,10,15,13,03,13.00
2010,10,15,13,04,12.90
2010,10,15,13,05,13.00
2010,10,15,13,06,13.10
2010,10,15,13,07,12.90
2010,10,15,13,08,12.50
2010,10,15,13,09,12.20
2010,10,15,13,10,12.10
2010,10,15,13,11,12.20
2010,10,15,13,12,12.30
2010,10,15,13,13,12.40
2010,10,15,13,14,12.50
2010,10,15,13,15,12.50
2010,10,15,13,16,12.60
2010,10,15,13,17,12.80
2010,10,15,13,18,12.80
2010,10,15,13,19,12.90
2010,10,15,13,20,12.90
2010,10,15,13,21,12.90
2010,10,15,13,22,12.90
2010,10,15,13,23,12.90
2010,10,15,13,24,12.90
2010,10,15,13,25,12.90
2010,10,15,13,26,13.00
2010,10,15,13,27,13.10
2010,10,15,13,28,13.20
2010,10,15,13,29,13.10
2010,10,15,13,30,13.00
2010,10,15,13,31,13.00
2010,10,15,13,32,12.90
2010,10,15,13,33,12.90
2010,10,15,13,34,12.90
2010,10,15,13,35,12.90
2010,10,15,13,36,12.90
2010,10,15,13,37,12.80
2010,10,15,13,38,12.80
2010,10,15,13,39,12.80
2010,10,15,13,40,12.80
2010,10,15,13,41,12.80
2010,10,15,13,42,12.80
2010,10,15,13,43,12.80
2010,10,15,13,44,12.70
2010,10,15,13,45,12.70
2010,10,15,13,46,12.80
2010,10,15,13,47,12.80
2010,10,15,13,48,12.80
2010,10,15,13,49,12.70
2010,10,15,13,50,12.60
2010,10,15,13,51,12.50
2010,10,15,13,52,12.40
2010,10,15,13,53,12.40
2010,10,15,13,54,12.50
2010,10,15,13,55,12.60
2010,10,15,13,56,12.70
2010,10,15,13,57,12.70
2010,10,15,13,58,12.80
2010,10,15,13,59,12.80
2010,10,15,14,00,12.80
2010,10,15,14,01,12.80
2010,10,15,14,02,12.80
2010,10,15,14,03,12.90
2010,10,15,14,04,13.00
2010,10,15,14,05,13.00
2010,10,15,14,06,13.10
2010,10,15,14,07,13.10
2010,10,15,14,08,13.10
2010,10,15,14,09,13.10
2010,10,15,14,10,13.10
2010,10,15,14,11,13.20
2010,10,15,14,12,13.20
2010,10,15,14,13,13.20
2010,10,15,14,14,13.30
2010,10,15,14,15,13.30
2010,10,15,14,16,13.10
2010,10,15,14,17,13.00
2010,10,15,14,18,12.90
2010,10,15,14,19,12.70
2010,10,15,14,20,12.60
2010,10,15,14,21,12.50
2010,10,15,14,22,12.50
2010,10,15,14,23,12.40
2010,10,15,14,24,12.30
2010,10,15,14,25,12.50
2010,10,15,14,26,12.40
2010,10,15,14,27,12.20
2010,10,15,14,28,12.00
2010,10,15,14,29,11.80
2010,10,15,14,30,11.70
2010,10,15,14,31,11.70
2010,10,15,14,32,11.80
2010,10,15,14,33,12.00
2010,10,15,14,34,12.10
2010,10,15,14,35,12.20
2010,10,15,14,36,12.30
2010,10,15,14,37,12.30
2010,10,15,14,38,12.10
2010,10,15,14,39,12.00
2010,10,15,14,40,12.10
2010,10,15,14,41,12.10
2010,10,15,14,42,12.20
2010,10,15,14,43,12.30
2010,10,15,14,44,12.50
2010,10,15,14,45,12.70
2010,10,15,14,46,12.80
2010,10,15,14,47,12.80
2010,10,15,14,48,12.60
2010,10,15,14,49,12.60
2010,10,15,14,50,12.70
2010,10,15,14,51,12.80
2010,10,15,14,52,12.90
2010,10,15,14,53,13.00
2010,10,15,14,54,13.00
2010,10,15,14,55,13.10
2010,10,15,14,56,13.10
2010,10,15,14,57,13.10
2010,10,15,14,58,13.10
2010,10,15,14,59,13.10
2010,10,15,15,00,13.00
2010,10,15,15,01,13.10
2010,10,15,15,02,12.90
2010,10,15,15,03,12.70
2010,10,15,15,04,12.70
2010,10,15,15,05,12.70
2010,10,15,15,06,12.80
2010,10,15,15,07,12.70
2010,10,15,15,08,12.70
2010,10,15,15,09,12.70
2010,10,15,15,10,12.70
2010,10,15,15,11,12.90
2010,10,15,15,12,13.00
2010,10,15,15,13,13.00
2010,10,15,15,14,12.80
2010,10,15,15,15,12.70
2010,10,15,15,16,12.50
2010,10,15,15,17,12.40
2010,10,15,15,18,12.50
2010,10,15,15,19,12.60
2010,10,15,15,20,12.70
2010,10,15,15,21,12.70
2010,10,15,15,22,12.50
2010,10,15,15,23,12.30
2010,10,15,15,24,12.20
2010,10,15,15,25,12.00
2010,10,15,15,26,12.10
2010,10,15,15,27,12.20
2010,10,15,15,28,12.30
2010,10,15,15,29,12.20
2010,10,15,15,30,12.10
2010,10,15,15,31,12.00
2010,10,15,15,32,11.90
2010,10,15,15,33,12.00
2010,10,15,15,34,12.20
2010,10,15,15,35,12.30
2010,10,15,15,36,12.30
2010,10,15,15,37,12.20
2010,10,15,15,38,12.30
2010,10,15,15,39,12.30
2010,10,15,15,40,12.20
2010,10,15,15,41,12.10
2010,10,15,15,42,12.10
2010,10,15,15,43,12.00
2010,10,15,15,44,11.90
2010,10,15,15,45,11.80
2010,10,15,15,46,11.70
2010,10,15,15,47,11.70
2010,10,15,15,48,11.70
2010,10,15,15,49,11.70
2010,10,15,15,50,11.60
2010,10,15,15,51,11.60
2010,10,15,15,52,11.70
2010,10,15,15,53,11.80
2010,10,15,15,54,11.70
2010,10,15,15,55,11.70
2010,10,15,15,56,11.60
2010,10,15,15,57,11.60
2010,10,15,15,58,11.70
2010,10,15,15,59,11.60
2010,10,15,16,00,11.60
2010,10,15,16,01,11.60
2010,10,15,16,02,11.60
2010,10,15,16,03,11.60
2010,10,15,16,04,11.60
2010,10,15,16,05,11.70
2010,10,15,16,06,11.70
2010,10,15,16,07,11.70
2010,10,15,16,08,11.60
2010,10,15,16,09,11.60
2010,10,15,16,10,11.60
2010,10,15,16,11,11.40
2010,10,15,16,12,11.40
2010,10,15,16,13,11.40
2010,10,15,16,14,11.40
2010,10,15,16,15,11.40
2010,10,15,16,16,11.40
2010,10,15,16,17,11.40
2010,10,15,16,18,11.50
2010,10,15,16,19,11.60
2010,10,15,16,20,11.70
2010,10,15,16,21,11.80
2010,10,15,16,22,11.80
2010,10,15,16,23,11.80
2010,10,15,16,24,11.80
2010,10,15,16,25,11.90
2010,10,15,16,26,12.10
2010,10,15,16,27,12.20
2010,10,15,16,28,12.20
2010,10,15,16,29,12.30
2010,10,15,16,30,12.40
2010,10,15,16,31,12.40
2010,10,15,16,32,12.30
2010,10,15,16,33,12.20
2010,10,15,16,34,12.00
2010,10,15,16,35,12.00
2010,10,15,16,36,11.90
2010,10,15,16,37,11.80
2010,10,15,16,38,11.80
2010,10,15,16,39,11.80
2010,10,15,16,40,11.80
2010,10,15,16,41,11.80
2010,10,15,16,42,11.80
2010,10,15,16,43,11.80
2010,10,15,16,44,11.80
2010,10,15,16,45,11.80
2010,10,15,16,46,11.80
2010,10,15,16,47,11.80
2010,10,15,16,48,11.80
2010,10,15,16,49,11.80
2010,10,15,16,50,11.80
2010,10,15,16,51,11.80
2010,10,15,16,52,11.80
2010,10,15,16,53,11.80
2010,10,15,16,54,11.80
2010,10,15,16,55,11.80
2010,10,15,16,56,11.80
2010,10,15,16,57,11.70
2010,10,15,16,58,11.70
2010,10,15,16,59,11.60
2010,10,15,17,00,11.60
2010,10,15,17,01,11.60
2010,10,15,17,02,11.50
2010,10,15,17,03,11.40
2010,10,15,17,04,11.40
2010,10,15,17,05,11.40
2010,10,15,17,06,11.40
2010,10,15,17,07,11.30
2010,10,15,17,08,11.30
2010,10,15,17,09,11.30
2010,10,15,17,10,11.30
2010,10,15,17,11,11.30
2010,10,15,17,12,11.30
2010,10,15,17,13,11.30
2010,10,15,17,14,11.30
2010,10,15,17,15,11.20
2010,10,15,17,16,11.20
2010,10,15,17,17,11.20
2010,10,15,17,18,11.10
2010,10,15,17,19,11.10
2010,10,15,17,20,11.10
2010,10,15,17,21,11.10
2010,10,15,17,22,11.10
2010,10,15,17,23,11.10
2010,10,15,17,24,11.10
2010,10,15,17,25,11.10
2010,10,15,17,26,11.10
2010,10,15,17,27,11.10
2010,10,15,17,28,11.10
2010,10,15,17,29,11.10
2010,10,15,17,30,11.10
2010,10,15,17,31,11.10
2010,10,15,17,32,11.10
2010,10,15,17,33,11.10
2010,10,15,17,34,11.10
2010,10,15,17,35,11.10
2010,10,15,17,36,11.10
2010,10,15,17,37,11.10
2010,10,15,17,38,11.10
2010,10,15,17,39,11.10
2010,10,15,17,40,11.10
2010,10,15,17,41,11.10
2010,10,15,17,42,11.10
2010,10,15,17,43,11.10
2010,10,15,17,44,11.10
2010,10,15,17,45,11.10
2010,10,15,17,46,11.10